This is the latest recevied weather packets stored in our database for station/object KF7ROW. If no packets are shown the sender has not sent any weather packets the latest 10 day(s).
| Time | Temp. | Humidity | Pressure | Rain* | Wind** | Luminosity | Snow |
|---|---|---|---|---|---|---|---|
| 1777424688 | 12.78° C | 69% | 1028.1 hPa | 0 mm | - | 253 W/m² | - |
| 1777424382 | 13.33° C | 70% | 1028.1 hPa | 0 mm | - | 197 W/m² | - |
| 1777424078 | 13.33° C | 70% | 1028.2 hPa | 0 mm | - | 196 W/m² | - |
| 1777423776 | 12.78° C | 70% | 1027.9 hPa | 0 mm | - | 171 W/m² | - |
| 1777423473 | 12.78° C | 71% | 1028.2 hPa | 0 mm | - | 198 W/m² | - |
| 1777423168 | 13.33° C | 69% | 1028.2 hPa | 0 mm | - | 210 W/m² | - |
| 1777422861 | 13.33° C | 68% | 1028.1 hPa | 0 mm | - | 222 W/m² | - |
| 1777422557 | 13.89° C | 66% | 1028.3 hPa | 0 mm | - | 357 W/m² | - |
| 1777422254 | 13.89° C | 67% | 1028.1 hPa | 0 mm | - | 406 W/m² | - |
| 1777421953 | 13.33° C | 66% | 1028.1 hPa | 0 mm | - | 404 W/m² | - |
| 1777421648 | 13.89° C | 67% | 1028.1 hPa | 0 mm | - | 422 W/m² | - |
| 1777421343 | 14.44° C | 65% | 1028 hPa | 0 mm | - | 415 W/m² | - |
| 1777421040 | 13.33° C | 65% | 1028.1 hPa | 0 mm | - | 417 W/m² | - |
| 1777420736 | 13.89° C | 65% | 1028 hPa | 0 mm | - | 439 W/m² | - |
| 1777420433 | 13.89° C | 63% | 1028.1 hPa | 0 mm | - | 447 W/m² | - |
| 1777420129 | 13.89° C | 64% | 1028 hPa | 0 mm | - | 418 W/m² | - |
| 1777419825 | 13.89° C | 62% | 1028 hPa | 0 mm | - | 461 W/m² | - |
| 1777419523 | 13.89° C | 67% | 1028 hPa | 0 mm | - | 254 W/m² | - |
| 1777419222 | 13.89° C | 64% | 1028 hPa | 0 mm | - | 500 W/m² | - |
| 1777418918 | 13.89° C | 63% | 1028 hPa | 0 mm | - | 525 W/m² | - |
| 1777418614 | 13.89° C | 66% | 1027.9 hPa | 0 mm | - | 550 W/m² | - |
| 1777418311 | 13.89° C | 68% | 1028 hPa | 0 mm | - | 565 W/m² | - |
| 1777418006 | 13.89° C | 66% | 1028 hPa | 0 mm | - | 479 W/m² | - |
| 1777417702 | 13.33° C | 64% | 1028 hPa | 0 mm | - | 361 W/m² | - |
| 1777417398 | 13.89° C | 69% | 1028.3 hPa | 0 mm | - | 324 W/m² | - |
* Rain latest hour (hover to see other rain measurements)
** Current wind speed in m/s (hover to see current wind gust speed)